{"data":{"norad_id":49282,"epoch":"2026-05-25T03:31:41.947392Z","epoch_age_seconds":58849,"freshness":"FRESH","line1":"1 49282U 21090D   26145.14701328 -.00000089  00000+0 -27452-3 0  9992","line2":"2 49282  87.8944 294.2991 0001760  89.7892 270.3439 13.14502113224557","mean_motion":13.14502113,"eccentricity":0.000176,"inclination_deg":87.8944,"raan_deg":294.2991,"arg_perigee_deg":89.7892,"mean_anomaly_deg":270.3439,"bstar":-0.00027452,"rev_number":22455,"period_min":109.54718031708,"perigee_km":1204.4582253629,"apogee_km":1207.1277687219,"semimajor_km":7583.9299970424,"source":"CELESTRAK","updated_at":"2026-05-25T13:38:22.519672Z"}}